This is the latest recevied weather packets stored in our database for station/object K5DLF-13. If no packets are shown the sender has not sent any weather packets the latest 1 day(s).
| Time | Temp. | Humidity | Pressure | Rain* | Wind** | Luminosity | Snow |
|---|---|---|---|---|---|---|---|
| 1778087695 | 28.33° C | 86% | 1008 hPa | 0 mm | - | 269 W/m² | - |
| 1778087095 | 28.33° C | 89% | 1008.1 hPa | 0 mm | - | 392 W/m² | - |
| 1778086795 | 28.33° C | 89% | 1008.1 hPa | 0 mm | - | 341 W/m² | - |
| 1778086195 | 27.78° C | 90% | 1008.1 hPa | 0 mm | - | 489 W/m² | - |
| 1778085895 | 27.22° C | 92% | 1008.2 hPa | 0 mm | - | 306 W/m² | - |
| 1778084695 | 26.67° C | 93% | 1008.1 hPa | 0 mm | - | 193 W/m² | - |
| 1778083495 | 26.11° C | 93% | 1008.1 hPa | 0 mm | - | 100 W/m² | - |
| 1778082895 | 26.11° C | 93% | 1008.1 hPa | 0 mm | - | 76 W/m² | - |
| 1778082595 | 26.11° C | 93% | 1007.9 hPa | 0 mm | - | 105 W/m² | - |
| 1778080195 | 26.11° C | 95% | 1007.5 hPa | 0 mm | - | 67 W/m² | - |
| 1778074495 | 25° C | 96% | 1007.4 hPa | 0 mm | - | 100 W/m² | - |
| 1778063696 | 24.44° C | 95% | 1006.1 hPa | 0 mm | - | 0 W/m² | - |
| 1778063396 | 24.44° C | 95% | 1006.2 hPa | 0 mm | - | 0 W/m² | - |
| 1778062496 | 24.44° C | 95% | 1006 hPa | 0 mm | - | 0 W/m² | - |
| 1778062196 | 24.44° C | 95% | 1005.9 hPa | 0 mm | - | 0 W/m² | - |
| 1778061896 | 24.44° C | 95% | 1005.9 hPa | 0 mm | - | 0 W/m² | - |
| 1778061596 | 24.44° C | 95% | 1005.9 hPa | 0 mm | - | 0 W/m² | - |
| 1778061296 | 24.44° C | 95% | 1005.7 hPa | 0 mm | - | 0 W/m² | - |
| 1778060996 | 24.44° C | 95% | 1005.8 hPa | 0 mm | - | 0 W/m² | - |
| 1778060696 | 24.44° C | 95% | 1005.7 hPa | 0 mm | - | 0 W/m² | - |
| 1778060396 | 24.44° C | 95% | 1005.8 hPa | 0 mm | - | 0 W/m² | - |
| 1778060096 | 24.44° C | 95% | 1005.9 hPa | 0 mm | - | 0 W/m² | - |
| 1778059796 | 24.44° C | 95% | 1006 hPa | 0 mm | - | 0 W/m² | - |
| 1778059496 | 24.44° C | 95% | 1005.9 hPa | 0 mm | - | 0 W/m² | - |
| 1778059196 | 24.44° C | 95% | 1005.8 hPa | 0 mm | - | 0 W/m² | - |
* Rain latest hour (hover to see other rain measurements)
** Current wind speed in m/s (hover to see current wind gust speed)